EW2628 Weather Reports


time (UTC)temp
F
wind
direction
speed
knots
gust
knots
rain 1hr
in
rain 24hr
in
rain mn
in
humidity
%
barometer
mb
20260505004507 53 0.0 2.6 0.03 0.03 0.03 72 1003.3
20260505003025 53 0.0 2.6 0.02 0.02 0.02 71 1003.3
20260505001543 54 0.0 1.7 0.02 0.02 0.02 63 1002.9
20260505000109 56 0.0 3.5 0.01 0.01 0.01 60 1002.8
20260504234603 58 0.0 7.8 0.00 0.00 0.00 52 1002.8
20260504233019 62 2.6 7.0 0.00 0.00 0.00 39 1002.5
20260504231536 62 0.0 4.3 0.00 0.00 0.00 37 1002.0
20260504230056 63 1.7 5.2 0.00 0.00 0.00 36 1001.5
20260504224511 64 2.6 6.1 0.00 0.00 0.00 35 1001.1
20260504223034 65 2.6 8.7 0.00 0.00 0.00 35 1001.2
20260504221547 66 2.6 7.0 0.00 0.00 0.00 35 1001.2
20260504220003 64 2.6 6.1 0.00 0.00 0.00 36 1001.6
20260504214522 62 2.6 6.1 0.00 0.00 0.00 37 1001.9
20260504213037 62 0.0 4.3 0.00 0.00 0.00 39 1001.9
20260504211600 62 3.5 13.0 0.00 0.00 0.00 38 1001.7
20260504210018 64 5.2 10.4 0.00 0.00 0.00 34 1001.6
20260504204532 63 3.5 8.7 0.00 0.00 0.00 36 1001.5
20260504203055 63 5.2 14.8 0.00 0.00 0.00 35 1001.3
20260504201504 63 5.2 16.5 0.00 0.00 0.00 36 1001.5
20260504200031 64 5.2 14.8 0.00 0.00 0.00 30 1002.1
20260504194530 65 4.3 12.2 0.00 0.00 0.00 30 1001.5
20260504193006 66 4.3 10.4 0.00 0.00 0.00 28 1001.1
20260504191520 67 4.3 11.3 0.00 0.00 0.00 26 1000.9
20260504190059 69 0.9 8.7 0.00 0.00 0.00 24 1000.4
20260504184626 69 7.0 13.0 0.00 0.00 0.00 24 1000.6
20260504183016 71 3.5 9.6 0.00 0.00 0.00 22 1000.4
20260504181532 71 3.5 9.6 0.00 0.00 0.00 23 1000.3
20260504180100 71 2.6 7.0 0.00 0.00 0.00 24 1000.4
20260504174512 70 2.6 6.1 0.00 0.00 0.00 23 1000.7
20260504173043 71 2.6 8.7 0.00 0.00 0.00 21 1000.9
20260504171600 70 3.5 7.8 0.00 0.00 0.00 22 1001.1
20260504100105 41 0.0 0.0 0.00 0.00 0.00 66 1002.8
20260504081510 48 0.0 0.9 0.00 0.00 0.00 50 1003.6
20260504050021 56 0.9 2.6 0.00 0.00 0.00 38 1004.5
20260504044539 57 0.9 3.5 0.00 0.00 0.00 37 1004.4
20260504043057 58 2.6 6.1 0.00 0.00 0.00 34 1004.5
20260504041513 60 1.7 6.1 0.00 0.00 0.00 32 1004.5
20260504040036 61 3.5 7.8 0.00 0.00 0.00 30 1004.7
20260504034504 63 2.6 7.0 0.00 0.00 0.00 26 1004.6
20260504033014 62 1.7 4.3 0.00 0.00 0.00 29 1004.2
20260504031541 61 0.9 5.2 0.00 0.00 0.00 31 1004.0
20260504030058 60 0.0 0.0 0.00 0.00 0.00 31 1003.4
20260504024535 60 0.0 0.9 0.00 0.00 0.00 31 1003.3
20260504023101 61 0.0 0.0 0.00 0.00 0.00 30 1003.3
20260504021518 63 0.0 0.0 0.00 0.00 0.00 28 1003.3
20260504020048 64 0.0 0.0 0.00 0.00 0.00 25 1003.1
20260504014509 67 0.0 0.0 0.00 0.00 0.00 24 1003.1
20260504013051 68 0.0 0.0 0.00 0.00 0.00 23 1003.1
20260504011517 68 0.0 0.9 0.00 0.00 0.00 22 1003.2
20260504010036 68 0.9 2.6 0.00 0.00 0.00 21 1003.3